Regional Weather Roundup
Issued by NWS

Home | Current Version | Previous Version | Text Only | Print | Product List | Glossary On
Versions: 1 2 3 4 5 6 7 8 9 10 11 12 13 14 15 16 17 18 19 20 21 22 23 24 25 26 27 28 29 30 31 32 33 34 35 36 37 38 39 40 41 42 43 44 45 46 47 48 49 50
000
ASUS43 KDMX 222207
RWRIA

WEATHER ROUNDUP FOR IOWA
NATIONAL WEATHER SERVICE DES MOINES IA
500 PM CDT FRI MAY 22 2015

NOTE: "FAIR" INDICATES FEW OR NO CLOUDS BELOW 12,000 FEET WITH NO
SIGNIFICANT WEATHER AND/OR OBSTRUCTIONS TO VISIBILITY.

* - THESE STATIONS ARE NOT NWS STATIONS...THUS NOT UNDER NWS
QUALITY CONTROL.  THEY ALSO DO NOT REPORT WEATHER SUCH
AS PRECIPITATION OR FOG.

IAZ001>003-012>014-020>022-031>034-043>046-222300-
   NORTHWEST IOWA

CITY           SKY/WX    TMP DP  RH WIND       PRES   REMARKS
CARROLL *      PTSUNNY   73  39  29 SW13      30.18F
CHEROKEE *     CLOUDY    72  43  35 CALM      30.17F
DENISON *      MOSUNNY   72  39  30 SW9G16    30.18F
LE MARS *      SUNNY     72  39  30 SW14      30.18F
ORANGE CITY *  MOSUNNY   70  41  35 SW15      30.18S
SHELDON *      SUNNY     73  32  21 SE9G17    30.16F
SIOUX CITY     CLOUDY    69  40  34 SW24      30.20S
SPENCER        CLOUDY    73  42  32 E6        30.18F
STORM LAKE *   SUNNY     73  32  21 S10       30.19S
$$

IAZ055>058-069>071-079>083-090>094-222300-
   SOUTHWEST IOWA

CITY           SKY/WX    TMP DP  RH WIND       PRES   REMARKS
ATLANTIC *     SUNNY     66  46  48 SW15      30.22S
AUDUBON *      SUNNY     70  41  35 S9        30.22S
CLARINDA *     CLOUDY    64  54  68 CALM      30.24F
COUNCIL BLFS * MOSUNNY   63  46  55 E10       30.22F
CRESTON *      MOSUNNY   66  45  45 SW10      30.22F
HARLAN  *      SUNNY     64  45  48 SW16G23   30.25S
LAMONI         CLOUDY    67  48  50 SW8       30.23S
RED OAK *      PTSUNNY   64  54  68 CALM      30.23F
SHENANDOAH *   PTSUNNY   66  48  52 SE3       30.23F
$$

IAZ047>049-059>061-072>074-084-222300-
   CENTRAL IOWA

CITY           SKY/WX    TMP DP  RH WIND       PRES   REMARKS
AMES           CLOUDY    73  35  25 S5        30.19S
ANKENY *       SUNNY     73  45  35 SW7       30.19S
CHARITON *     SUNNY     72  50  46 SW9       30.21S
DES MOINES     CLOUDY    75  39  27 W6        30.19F
GRINNELL*      PTSUNNY   73  37  27 W5        30.20S
KNOXVILLE *    SUNNY     73  39  29 SW8       30.19S
MARSHALLTOWN   CLOUDY    74  36  25 CALM      30.18F
PELLA *        CLOUDY    75  43  31 CALM      30.21S
PERRY *          N/A     73  36  25 SW8       30.19S
$$

IAZ004>006-015-016-023>025-035-036-222300-
   NORTH CENTRAL IOWA

CITY           SKY/WX    TMP DP  RH WIND       PRES   REMARKS
ALGONA *       SUNNY     72  32  23 CALM      30.19F
CLARION *      SUNNY     73  30  20 SW10      30.19S
ESTHERVILLE    CLOUDY    72  31  22 S6        30.18S
FORT DODGE *   CLOUDY    72  39  30 CALM      30.20S
MASON CITY     CLOUDY    74  34  23 CALM      30.20S
FOREST CITY *  SUNNY     70  37  30 NW3       30.19S
IOWA FALLS *     N/A     73  30  20 SW6       30.20S
$$

IAZ007>011-017>019-026>030-037>042-050>054-066-222300-
   NORTHEAST IOWA

CITY           SKY/WX    TMP DP  RH WIND       PRES   REMARKS
CEDAR RAPIDS   CLOUDY    74  35  24 SW8       30.19S
CHARLES CITY * SUNNY     75  34  22 SW6G12    30.20S
CLINTON *      CLOUDY    73  36  25 W6        30.22S
DECORAH *      SUNNY     72  30  21 VRB3      30.19S
DUBUQUE        CLOUDY    72  39  30 CALM      30.21S
MONTICELLO *   SUNNY     73  36  25 CALM      30.19F
OELWEIN *      SUNNY     73  32  21 CALM      30.20S
WATERLOO       CLOUDY    72  42  34 CALM      30.18F
$$

IAZ064-065-067-068-078-222300-
   EAST CENTRAL IOWA

CITY           SKY/WX    TMP DP  RH WIND       PRES   REMARKS
DAVENPORT      CLOUDY    75  33  21 SW8       30.19F
IOWA CITY      CLOUDY    74  38  27 CALM      30.20F
MT. PLEASANT * PTSUNNY   73  36  25 W6        30.20S
MUSCATINE *    SUNNY     75  37  25 N6        30.19S
QUAD CITIES    CLOUDY    77  37  23 NW6       30.18F
$$

IAZ062-063-075>077-085>089-095>099-222300-
   SOUTHEAST IOWA

CITY           SKY/WX    TMP DP  RH WIND       PRES   REMARKS
BURLINGTON     PTSUNNY   74  42  31 W7        30.19F
FAIRFIELD *    SUNNY     75  34  22 CALM      30.20S
FORT MADISON * SUNNY     73  37  27 W5        30.21S
KEOKUK *       SUNNY     73  46  38 W3        30.20S
OSKALOOSA *      N/A     75  34  22 W5        30.20S
CENTERVILLE *  SUNNY     68  68 100 SW9       30.23S
OTTUMWA        CLOUDY    73  46  38 W6        30.18F
WASHINGTON *   SUNNY     75  36  23 CALM      30.21S
$$

ABBREVIATIONS USED IN REMARKS
   TC - TEMPERATURES IN CELSIUS
  WCI - WIND CHILL INDEX
   HX - HEAT INDEX
  VSB - VISIBILITY
$$



USA.gov is the U.S. government's official web portal to all federal, state and local government web resources and services.